sat.trackr.live / text

‹ back to catalog

STARLINK-30990

NORAD 58478 · 2023-186F

PAYLOAD ACTIVE UNKNOWN

§ Identity

Operator
Country
US
Launch date
2023-12-03
Launch site
AFETR
Launch vehicle
Mass (kg)
RCS (m²)

Purposes: comms

External: N2YO · Heavens-Above · Gunter

§ Orbital elements

Epoch: 2026-09-20T20:35:28.701312Z

Period
94.27 min
Inclination
43.0053°
Eccentricity
0.0002329
Mean motion
15.27577430 rev/d
Perigee alt
481.5 km
Apogee alt
484.7 km
Semi-major
6,861.2 km
B*
9.5324e-6
RAAN
44.9375°
Arg perigee
266.2314°
Mean anomaly
93.8271°
Rev number
15,574

§ Raw data

STARLINK-309901 58478U 23186F   26263.85797108  .00000000  00000+0  95324-5 0  99932 58478  43.0053  44.9375 0002329 266.2314  93.8271 15.27577430155744

JSON: /api/v1/satellites/58478 · /tle

For live sub-satellite position, see the globe view (requires WebGL).

§ Visibility from observer

Set your observer location to see the next 7 days of passes ≥ 10°. The values pass through the URL so the page stays shareable.

No JS? Fill the form by hand. The geolocation button needs JavaScript.